CW0343 Weather Reports


Display with metric or nautical units.
time (UTC)temp
F
wind
direction
speed
MPH
gust
MPH
rain 1hr
in
rain 24hr
in
rain mn
in
humidity
%
barometer
mb
20260905095804 65 17 4.0 7.0 0.00 0.00 0.00 81 1019.7
20260905095306 65 1 5.0 8.0 0.00 0.00 0.00 81 1019.6
20260905094804 65 0 5.0 9.0 0.00 0.00 0.00 81 1019.5
20260905094305 65 4 2.0 9.0 0.00 0.00 0.00 81 1019.4
20260905093804 65 27 3.0 8.0 0.00 0.00 0.00 81 1019.4
20260905092306 66 35 2.0 6.0 0.00 0.00 0.00 80 1019.1
20260905091805 66 11 2.0 6.0 0.00 0.00 0.00 80 1019.0
20260905091304 66 20 3.0 8.0 0.00 0.00 0.00 80 1018.9
20260905090804 66 19 3.0 7.0 0.00 0.00 0.00 80 1018.7
20260905090306 66 10 3.0 7.0 0.00 0.00 0.00 80 1018.7
20260905085804 66 61 3.0 9.0 0.00 0.00 0.00 80 1018.6
20260905085305 67 32 4.0 9.0 0.00 0.00 0.00 79 1018.5
20260905084806 67 27 4.0 10.0 0.00 0.00 0.00 79 1018.4
20260905084305 67 35 4.0 10.0 0.00 0.00 0.00 79 1018.3
20260905082805 68 66 3.0 12.0 0.00 0.00 0.00 78 1018.1
20260905082307 68 33 4.0 8.0 0.00 0.00 0.00 78 1018.0
20260905081805 69 38 6.0 12.0 0.00 0.00 0.00 78 1018.0
20260905081305 69 50 5.0 12.0 0.00 0.00 0.00 77 1017.9
20260905080804 70 44 6.0 12.0 0.00 0.00 0.00 77 1017.9
20260905080304 70 32 7.0 12.0 0.00 0.00 0.00 76 1017.8
20260905075804 70 47 6.0 10.0 0.00 0.00 0.00 76 1017.7
20260905075306 71 45 6.0 13.0 0.00 0.00 0.00 75 1017.7
20260905074805 71 48 7.0 12.0 0.00 0.00 0.00 75 1017.6
20260905074305 71 52 7.0 12.0 0.00 0.00 0.00 74 1017.6
20260905073804 72 47 8.0 13.0 0.00 0.00 0.00 74 1017.6
20260905073305 72 66 9.0 12.0 0.00 0.00 0.00 73 1017.5
20260905072804 72 47 7.0 14.0 0.00 0.00 0.00 73 1017.5
20260905072306 73 40 11.0 17.0 0.00 0.00 0.00 72 1017.5
20260905071804 73 49 8.0 14.0 0.00 0.00 0.00 71 1017.4
20260905071305 73 51 7.0 14.0 0.00 0.00 0.00 71 1017.4
20260905070804 74 22 8.0 13.0 0.00 0.00 0.00 70 1017.4
20260905070305 74 48 9.0 13.0 0.00 0.00 0.00 70 1017.3
20260905065805 74 48 7.0 14.0 0.00 0.00 0.00 69 1017.2
20260905065306 75 14 6.0 12.0 0.00 0.00 0.00 69 1017.2
20260905064804 75 37 6.0 12.0 0.00 0.00 0.00 68 1017.1
20260905064304 76 66 9.0 15.0 0.00 0.00 0.00 67 1017.1
20260905063804 76 65 6.0 12.0 0.00 0.00 0.00 66 1017.1
20260905063304 76 50 6.0 13.0 0.00 0.00 0.00 66 1017.0
20260905062805 77 48 6.0 13.0 0.00 0.00 0.00 65 1016.9
20260905061304 78 17 6.0 12.0 0.00 0.00 0.00 64 1016.8
20260905060804 78 30 8.0 16.0 0.00 0.00 0.00 63 1016.8
20260905060305 78 68 7.0 13.0 0.00 0.00 0.00 63 1016.7
20260905055805 79 29 8.0 14.0 0.00 0.00 0.00 62 1016.7
20260905055306 79 26 6.0 15.0 0.00 0.00 0.00 62 1016.7
20260905054804 79 54 6.0 15.0 0.00 0.00 0.00 61 1016.7
20260905054305 80 5 8.0 14.0 0.00 0.00 0.00 61 1016.6
20260905053805 80 12 7.0 15.0 0.00 0.00 0.00 60 1016.6
20260905053304 80 15 8.0 16.0 0.00 0.00 0.00 60 1016.6
20260905052804 80 355 7.0 12.0 0.00 0.00 0.00 58 1016.6
20260905052306 80 46 5.0 9.0 0.00 0.00 0.00 58 1016.6
20260905051306 79 22 5.0 12.0 0.00 0.00 0.00 58 1016.8
20260905050306 80 58 4.0 9.0 0.00 0.00 0.00 57 1016.9
20260905045804 81 67 5.0 10.0 0.00 0.00 0.00 56 1017.1
20260905045306 81 29 5.0 13.0 0.00 0.00 0.00 56 1017.1
20260905044804 81 81 5.0 12.0 0.00 0.00 0.00 57 1017.1
20260905044305 81 37 6.0 12.0 0.00 0.00 0.00 55 1017.1
20260905043804 80 33 4.0 12.0 0.00 0.00 0.00 54 1017.1
20260905043304 79 112 3.0 6.0 0.00 0.00 0.00 51 1017.3
20260905042307 80 115 2.0 12.0 0.00 0.00 0.00 52 1017.3
20260905041804 80 153 3.0 7.0 0.00 0.00 0.00 53 1017.4
20260905041306 79 120 3.0 9.0 0.00 0.00 0.00 53 1017.5
20260905040806 79 88 4.0 9.0 0.00 0.00 0.00 54 1017.5
20260905040304 79 84 1.0 3.0 0.00 0.00 0.00 55 1017.7
20260905035804 79 85 4.0 10.0 0.00 0.00 0.00 54 1017.8
20260905035306 80 35 3.0 6.0 0.00 0.00 0.00 54 1017.8
20260905034804 80 34 5.0 9.0 0.00 0.00 0.00 53 1017.8
20260905033804 79 17 4.0 10.0 0.00 0.00 0.00 55 1018.1
20260905033304 79 75 5.0 9.0 0.00 0.00 0.00 56 1018.2
20260905032804 79 43 6.0 10.0 0.00 0.00 0.00 56 1018.2
20260905032306 78 56 4.0 5.0 0.00 0.00 0.00 57 1018.5
20260905031804 77 74 5.0 8.0 0.00 0.00 0.00 57 1018.7
20260905031304 77 85 4.0 8.0 0.00 0.00 0.00 57 1018.7
20260905030804 78 105 8.0 12.0 0.00 0.00 0.00 56 1018.8
20260905030306 78 112 4.0 12.0 0.00 0.00 0.00 53 1018.7
20260905025804 78 114 1.0 9.0 0.00 0.00 0.00 54 1018.9
20260905024804 77 109 3.0 7.0 0.00 0.00 0.00 54 1019.1
20260905023804 78 71 3.0 9.0 0.00 0.00 0.00 55 1019.1
20260905022804 78 66 2.0 8.0 0.00 0.00 0.00 54 1019.5
20260905022306 78 66 3.0 6.0 0.00 0.00 0.00 54 1019.5
20260905021304 78 79 2.0 5.0 0.00 0.00 0.00 56 1019.7
20260905020805 77 77 2.0 5.0 0.00 0.00 0.00 56 1019.8
20260905015804 76 107 4.0 7.0 0.00 0.00 0.00 58 1020.1
20260905015306 77 122 3.0 7.0 0.00 0.00 0.00 57 1020.2
20260905014804 77 138 3.0 3.0 0.00 0.00 0.00 55 1020.3
20260905014304 77 137 4.0 8.0 0.00 0.00 0.00 56 1020.5
20260905013805 77 100 3.0 9.0 0.00 0.00 0.00 56 1020.6
20260905013306 77 115 6.0 10.0 0.00 0.00 0.00 58 1020.7
20260905012805 77 53 5.0 10.0 0.00 0.00 0.00 57 1020.8
20260905011304 76 105 4.0 10.0 0.00 0.00 0.00 59 1021.1
20260905010305 75 61 7.0 12.0 0.00 0.00 0.00 60 1021.2
20260905005804 74 71 3.0 5.0 0.00 0.00 0.00 62 1021.4
20260905005306 74 82 4.0 9.0 0.00 0.00 0.00 62 1021.5
20260905004804 74 115 6.0 9.0 0.00 0.00 0.00 63 1021.6
20260905003804 73 76 3.0 9.0 0.00 0.00 0.00 64 1022.0
20260905003305 73 76 3.0 7.0 0.00 0.00 0.00 64 1022.0
20260905002806 74 82 3.0 7.0 0.00 0.00 0.00 66 1022.1
20260905002306 73 82 2.0 8.0 0.00 0.00 0.00 66 1022.1
20260905001805 73 57 2.0 8.0 0.00 0.00 0.00 66 1022.3
20260905000804 58 3 0.0 0.0 0.00 0.00 0.00 86 1022.4
20260905000304 58 3 0.0 0.0 0.00 0.00 0.00 86 1022.4
20260904235804 58 3 0.0 0.0 0.00 0.00 0.00 86 1022.5
20260904235306 58 2 0.0 0.0 0.00 0.00 0.00 86 1022.5
20260904234806 58 3 0.0 0.0 0.00 0.00 0.00 86 1022.6
20260904234304 58 3 0.0 0.0 0.00 0.00 0.00 86 1022.7
20260904233804 58 3 0.0 0.0 0.00 0.00 0.00 86 1022.7
20260904233304 58 3 0.0 0.0 0.00 0.00 0.00 86 1022.7
20260904232804 58 3 0.0 0.0 0.00 0.00 0.00 86 1022.8
20260904231804 58 2 0.0 0.0 0.00 0.00 0.00 86 1022.5
20260904231304 58 1 0.0 0.0 0.00 0.00 0.00 86 1022.5
20260904230305 58 3 0.0 0.0 0.00 0.00 0.00 86 1022.5
20260904225306 58 3 0.0 0.0 0.00 0.00 0.00 86 1022.5
20260904224804 58 3 0.0 0.0 0.00 0.00 0.00 86 1022.4
20260904224305 58 3 0.0 0.0 0.00 0.00 0.00 86 1022.4
20260904223804 58 3 0.0 0.0 0.00 0.00 0.00 86 1022.4
20260904222306 58 2 0.0 0.0 0.00 0.00 0.00 86 1022.1
20260904221805 58 2 0.0 0.0 0.00 0.00 0.00 86 1022.0
20260904221305 58 3 0.0 0.0 0.00 0.00 0.00 86 1022.0
20260904220806 58 3 0.0 0.0 0.00 0.00 0.00 86 1022.0
20260904220305 58 3 0.0 0.0 0.00 0.00 0.00 86 1022.0
20260904215804 58 3 0.0 0.0 0.00 0.00 0.00 86 1021.9
20260904215305 58 1 0.0 0.0 0.00 0.00 0.00 86 1021.8
20260904214804 58 3 0.0 0.0 0.00 0.00 0.00 86 1021.7
20260904214305 58 3 0.0 0.0 0.00 0.00 0.00 86 1021.7
20260904213804 58 3 0.0 0.0 0.00 0.00 0.00 86 1021.6
20260904213304 58 3 0.0 0.0 0.00 0.00 0.00 86 1021.6
20260904212805 58 3 0.0 0.0 0.00 0.00 0.00 86 1021.6
20260904212306 58 3 0.0 0.0 0.00 0.00 0.00 86 1021.4
20260904211804 58 3 0.0 0.0 0.00 0.00 0.00 86 1021.4
20260904210804 58 3 0.0 0.0 0.00 0.00 0.00 86 1021.3
20260904210304 58 2 0.0 0.0 0.00 0.00 0.00 86 1021.2
20260904205305 58 3 0.0 0.0 0.00 0.00 0.00 86 1021.1
20260904204805 58 3 0.0 0.0 0.00 0.00 0.00 86 1021.0
20260904204304 58 3 0.0 0.0 0.00 0.00 0.00 86 1021.0
20260904203305 58 3 0.0 0.0 0.00 0.00 0.00 86 1020.9
20260904202804 58 3 0.0 0.0 0.00 0.00 0.00 86 1020.8
20260904202306 58 3 0.0 0.0 0.00 0.00 0.00 86 1020.7
20260904201804 58 3 0.0 0.0 0.00 0.00 0.00 86 1020.6
20260904201306 58 3 0.0 0.0 0.00 0.00 0.00 86 1020.5
20260904200804 58 3 0.0 0.0 0.00 0.00 0.00 86 1020.4
20260904200305 58 3 0.0 0.0 0.00 0.00 0.00 86 1020.3
20260904195804 58 3 0.0 0.0 0.00 0.00 0.00 86 1020.3
20260904195306 58 3 0.0 0.0 0.00 0.00 0.00 86 1020.1
20260904194804 58 3 0.0 0.0 0.00 0.00 0.00 86 1020.1
20260904194304 58 3 0.0 0.0 0.00 0.00 0.00 86 1020.1
20260904193306 58 3 0.0 0.0 0.00 0.00 0.00 86 1019.9
20260904192805 58 3 0.0 0.0 0.00 0.00 0.00 86 1019.9
20260904192306 58 3 0.0 0.0 0.00 0.00 0.00 86 1019.9
20260904191804 58 4 0.0 0.0 0.00 0.00 0.00 86 1019.8
20260904191304 58 3 0.0 0.0 0.00 0.00 0.00 86 1019.7
20260904190805 58 3 0.0 0.0 0.00 0.00 0.00 86 1019.7
20260904190305 58 3 0.0 0.0 0.00 0.00 0.00 86 1019.7
20260904185804 58 3 0.0 0.0 0.00 0.00 0.00 86 1019.7
20260904185306 58 3 0.0 0.0 0.00 0.00 0.00 86 1019.6
20260904184805 58 3 0.0 0.0 0.00 0.00 0.00 86 1019.6
20260904184304 58 3 0.0 0.0 0.00 0.00 0.00 86 1019.6
20260904183805 58 3 0.0 0.0 0.00 0.00 0.00 86 1019.5
20260904183304 58 3 0.0 0.0 0.00 0.00 0.00 86 1019.5
20260904182805 58 3 0.0 0.0 0.00 0.00 0.00 86 1019.5
20260904182306 58 3 0.0 0.0 0.00 0.00 0.00 86 1019.5
20260904181804 58 3 0.0 0.0 0.00 0.00 0.00 86 1019.5
20260904181304 58 3 0.0 0.0 0.00 0.00 0.00 86 1019.5
20260904180305 58 3 0.0 0.0 0.00 0.00 0.00 86 1019.5
20260904175804 58 3 0.0 0.0 0.00 0.00 0.00 86 1019.6
20260904175305 58 3 0.0 0.0 0.00 0.00 0.00 86 1019.5
20260904174804 58 3 0.0 0.0 0.00 0.00 0.00 86 1019.6
20260904174304 58 3 0.0 0.0 0.00 0.00 0.00 86 1019.6
20260904173804 58 3 0.0 0.0 0.00 0.00 0.00 86 1019.6
20260904173304 58 3 0.0 0.0 0.00 0.00 0.00 86 1019.6
20260904172804 58 3 0.0 0.0 0.00 0.00 0.00 86 1019.6
20260904172306 58 3 0.0 0.0 0.00 0.00 0.00 86 1019.6
20260904171305 58 3 0.0 0.0 0.00 0.00 0.00 86 1019.6
20260904170304 58 3 0.0 0.0 0.00 0.00 0.00 86 1019.8
20260904165804 58 3 0.0 0.0 0.00 0.00 0.00 86 1019.8
20260904165305 58 3 0.0 1.0 0.00 0.00 0.00 86 1019.8
20260904164804 58 88 1.0 1.0 0.00 0.00 0.00 86 1019.8
20260904164304 58 88 1.0 3.0 0.00 0.00 0.00 86 1019.8
20260904163805 58 88 2.0 3.0 0.00 0.00 0.00 86 1019.8
20260904163304 58 87 2.0 5.0 0.00 0.00 0.00 86 1019.8
20260904162804 58 87 3.0 3.0 0.00 0.00 0.00 85 1019.9
20260904162306 58 87 2.0 3.0 0.00 0.00 0.00 85 1020.0
20260904161805 58 87 2.0 3.0 0.00 0.00 0.00 85 1020.0
20260904161304 58 87 2.0 3.0 0.00 0.00 0.00 85 1020.1
20260904160804 58 87 1.0 3.0 0.00 0.00 0.00 85 1020.1
20260904160303 58 87 2.0 3.0 0.00 0.00 0.00 85 1020.1
20260904155805 59 87 2.0 3.0 0.00 0.00 0.00 85 1020.1
20260904155306 59 87 2.0 3.0 0.00 0.00 0.00 85 1020.2
20260904154804 59 87 2.0 5.0 0.00 0.00 0.00 85 1020.2
20260904153804 59 86 3.0 7.0 0.00 0.00 0.00 85 1020.2
20260904153305 59 83 2.0 7.0 0.00 0.00 0.00 85 1020.3
20260904152805 59 81 3.0 7.0 0.00 0.00 0.00 85 1020.4
20260904152306 59 77 3.0 3.0 0.00 0.00 0.00 85 1020.4
20260904151305 59 74 2.0 5.0 0.00 0.00 0.00 85 1020.6
20260904150805 59 73 3.0 5.0 0.00 0.00 0.00 85 1020.7
20260904145804 58 63 2.0 3.0 0.00 0.00 0.00 85 1020.8
20260904144804 59 63 2.0 3.0 0.00 0.00 0.00 85 1021.0
20260904144305 59 63 2.0 5.0 0.00 0.00 0.00 85 1021.1
20260904143805 59 62 2.0 3.0 0.00 0.00 0.00 85 1021.1
20260904143304 59 62 3.0 5.0 0.00 0.00 0.00 85 1021.1
20260904142804 59 61 3.0 5.0 0.00 0.00 0.00 85 1021.1
20260904142306 59 58 3.0 6.0 0.00 0.00 0.00 84 1021.2
20260904141804 58 55 3.0 5.0 0.00 0.00 0.00 84 1021.2
20260904141304 58 54 3.0 5.0 0.00 0.00 0.00 84 1021.2
20260904140805 58 53 2.0 3.0 0.00 0.00 0.00 84 1021.3
20260904135805 59 53 1.0 2.0 0.00 0.00 0.00 84 1021.5
20260904135306 59 53 1.0 2.0 0.00 0.00 0.00 84 1021.6
20260904134805 59 53 2.0 3.0 0.00 0.00 0.00 84 1021.6
20260904133806 59 52 3.0 5.0 0.00 0.00 0.00 83 1021.5
20260904132804 59 50 3.0 5.0 0.00 0.00 0.00 83 1021.7
20260904132306 59 49 2.0 3.0 0.00 0.00 0.00 83 1021.7
20260904131804 60 49 3.0 3.0 0.00 0.00 0.00 83 1021.7
20260904131305 60 49 2.0 3.0 0.00 0.00 0.00 83 1021.8
20260904130805 60 49 2.0 3.0 0.00 0.00 0.00 83 1021.7
20260904130304 60 48 2.0 3.0 0.00 0.00 0.00 83 1021.7
20260904125804 60 48 2.0 3.0 0.00 0.00 0.00 83 1021.7
20260904125306 60 47 2.0 3.0 0.00 0.00 0.00 83 1021.7
20260904124804 60 47 2.0 3.0 0.00 0.00 0.00 83 1021.8
20260904124304 60 47 2.0 3.0 0.00 0.00 0.00 83 1021.8
20260904123804 60 47 2.0 3.0 0.00 0.00 0.00 83 1021.8
20260904123304 60 47 0.0 2.0 0.00 0.00 0.00 82 1021.8
20260904122804 60 47 2.0 3.0 0.00 0.00 0.00 82 1021.7
20260904122307 60 47 2.0 3.0 0.00 0.00 0.00 82 1021.7
20260904121304 60 47 2.0 3.0 0.00 0.00 0.00 82 1021.8
20260904120805 60 47 2.0 3.0 0.00 0.00 0.00 82 1021.8
20260904120306 60 46 2.0 3.0 0.00 0.00 0.00 81 1021.7
20260904115805 60 46 2.0 3.0 0.00 0.00 0.00 81 1021.7
20260904115306 61 46 2.0 3.0 0.00 0.00 0.00 81 1021.6
20260904114804 61 46 1.0 3.0 0.00 0.00 0.00 81 1021.5
20260904114304 61 46 1.0 3.0 0.00 0.00 0.00 81 1021.5
20260904113304 61 46 1.0 3.0 0.00 0.00 0.00 81 1021.5
20260904112804 61 47 1.0 2.0 0.00 0.00 0.00 81 1021.4
20260904112306 61 47 1.0 2.0 0.00 0.00 0.00 80 1021.3
20260904111804 61 47 1.0 3.0 0.00 0.00 0.00 80 1021.3
20260904111305 62 47 1.0 3.0 0.00 0.00 0.00 80 1021.2
20260904110805 62 47 1.0 3.0 0.00 0.00 0.00 80 1021.2
20260904105804 62 46 1.0 3.0 0.00 0.00 0.00 80 1021.1
20260904105306 62 47 0.0 0.0 0.00 0.00 0.00 80 1021.1
20260904104806 62 47 1.0 2.0 0.00 0.00 0.00 80 1021.0
20260904104304 62 46 1.0 3.0 0.00 0.00 0.00 79 1020.9
20260904103804 62 47 1.0 2.0 0.00 0.00 0.00 79 1020.9
20260904103304 62 47 1.0 2.0 0.00 0.00 0.00 79 1020.8
20260904102307 63 47 0.0 0.0 0.00 0.00 0.00 78 1020.7
20260904101804 63 46 0.0 0.0 0.00 0.00 0.00 77 1020.7
20260904101304 63 46 0.0 0.0 0.00 0.00 0.00 77 1020.6
20260904100804 64 46 0.0 0.0 0.00 0.00 0.00 78 1020.4